Time,TemperatureF,DewpointF,PressureIn,WindDirection,WindDirectionDegrees,WindSpeedMPH,WindSpeedGustMPH,Humidity,HourlyPrecipIn,Conditions,Clouds,dailyrainin,SoftwareType,DateUTC
2013-04-11 00:02:00,46.0,44.0,30.40,East,81,0.0,0.0,94,0.00,,,0.13,,2013-04-11 07:02:00,
2013-04-11 00:12:00,46.0,44.0,30.40,East,81,0.0,0.0,94,0.00,,,0.13,,2013-04-11 07:12:00,
2013-04-11 00:21:00,47.0,45.0,30.39,East,84,0.0,0.0,94,0.00,,,0.13,,2013-04-11 07:21:00,
2013-04-11 00:32:00,47.0,45.0,30.40,East,85,0.0,0.0,94,0.00,,,0.13,,2013-04-11 07:32:00,
2013-04-11 00:42:00,47.0,45.0,30.40,East,85,0.0,0.0,94,0.00,,,0.13,,2013-04-11 07:42:00,
2013-04-11 00:52:00,47.0,45.0,30.39,East,84,0.0,0.0,94,0.00,,,0.13,,2013-04-11 07:52:00,
2013-04-11 01:02:00,47.0,45.0,30.39,East,84,0.0,0.0,94,0.00,,,0.13,,2013-04-11 08:02:00,
2013-04-11 01:11:00,47.0,45.0,30.39,East,84,0.0,0.0,94,0.00,,,0.13,,2013-04-11 08:11:00,
2013-04-11 01:22:00,47.0,45.0,30.39,East,92,0.0,0.0,94,0.00,,,0.13,,2013-04-11 08:22:00,
2013-04-11 01:32:00,47.0,45.0,30.39,ENE,61,1.0,3.0,94,0.00,,,0.13,,2013-04-11 08:32:00,
2013-04-11 01:51:00,47.0,45.0,30.40,SE,138,1.0,4.0,94,0.00,,,0.13,,2013-04-11 08:51:00,
2013-04-11 02:02:00,46.0,44.0,30.40,East,95,2.0,5.0,94,0.00,,,0.13,,2013-04-11 09:02:00,
2013-04-11 02:11:00,46.0,44.0,30.40,East,95,2.0,5.0,94,0.00,,,0.13,,2013-04-11 09:11:00,
2013-04-11 02:22:00,46.0,44.0,30.41,NE,55,0.0,4.0,94,0.00,,,0.13,,2013-04-11 09:22:00,
2013-04-11 02:33:00,46.0,44.0,30.40,NE,53,0.0,2.0,94,0.00,,,0.13,,2013-04-11 09:33:00,
2013-04-11 02:42:00,46.0,44.0,30.40,NE,53,0.0,2.0,94,0.00,,,0.13,,2013-04-11 09:42:00,
2013-04-11 02:52:00,46.0,44.0,30.40,ENE,73,2.0,4.0,94,0.00,,,0.13,,2013-04-11 09:52:00,
2013-04-11 03:02:00,46.0,44.0,30.40,East,81,0.0,4.0,94,0.00,,,0.13,,2013-04-11 10:02:00,
2013-04-11 03:12:00,46.0,44.0,30.39,ENE,74,0.0,4.0,94,0.00,,,0.13,,2013-04-11 10:12:00,
2013-04-11 03:22:00,46.0,44.0,30.39,ENE,74,0.0,4.0,94,0.00,,,0.13,,2013-04-11 10:22:00,
2013-04-11 03:32:00,45.0,44.0,30.39,East,88,0.0,0.0,95,0.00,,,0.13,,2013-04-11 10:32:00,
2013-04-11 03:41:00,45.0,44.0,30.39,East,88,0.0,0.0,95,0.00,,,0.13,,2013-04-11 10:41:00,
2013-04-11 03:52:00,45.0,44.0,30.39,East,90,0.0,0.0,95,0.00,,,0.13,,2013-04-11 10:52:00,
2013-04-11 04:02:00,45.0,44.0,30.39,East,90,0.0,0.0,95,0.00,,,0.13,,2013-04-11 11:02:00,
2013-04-11 04:11:00,45.0,44.0,30.39,East,90,0.0,0.0,95,0.00,,,0.13,,2013-04-11 11:11:00,
2013-04-11 04:22:00,44.0,43.0,30.38,East,90,0.0,0.0,95,0.00,,,0.13,,2013-04-11 11:22:00,
2013-04-11 04:32:00,45.0,44.0,30.37,ESE,112,2.0,7.0,95,0.00,,,0.13,,2013-04-11 11:32:00,
2013-04-11 04:42:00,45.0,44.0,30.37,ESE,112,2.0,7.0,95,0.00,,,0.13,,2013-04-11 11:42:00,
2013-04-11 04:52:00,44.0,43.0,30.37,SE,145,0.0,2.0,95,0.00,,,0.13,,2013-04-11 11:52:00,
2013-04-11 05:02:00,45.0,44.0,30.37,SE,145,0.0,1.0,96,0.00,,,0.13,,2013-04-11 12:02:00,
2013-04-11 05:12:00,45.0,44.0,30.37,SE,145,0.0,1.0,96,0.00,,,0.13,,2013-04-11 12:12:00,
2013-04-11 05:22:00,44.0,43.0,30.36,East,88,1.0,3.0,96,0.01,,,0.14,,2013-04-11 12:22:00,
2013-04-11 05:32:00,45.0,44.0,30.36,East,85,0.0,0.0,96,0.01,,,0.14,,2013-04-11 12:32:00,
2013-04-11 05:42:00,45.0,44.0,30.36,East,85,0.0,0.0,96,0.01,,,0.14,,2013-04-11 12:42:00,
2013-04-11 05:52:00,44.0,43.0,30.35,East,84,3.0,8.0,96,0.01,,,0.14,,2013-04-11 12:52:00,
2013-04-11 06:02:00,44.0,43.0,30.35,ESE,105,5.0,8.0,96,0.01,,,0.14,,2013-04-11 13:02:00,
2013-04-11 06:12:00,44.0,43.0,30.36,East,90,4.0,8.0,96,0.00,,,0.14,,2013-04-11 13:12:00,
2013-04-11 06:22:00,44.0,43.0,30.36,East,90,4.0,8.0,96,0.00,,,0.14,,2013-04-11 13:22:00,
2013-04-11 06:32:00,43.0,42.0,30.36,ENE,72,4.0,7.0,96,0.00,,,0.13,,2013-04-11 13:32:00,
2013-04-11 06:42:00,43.0,42.0,30.36,ENE,72,4.0,7.0,96,0.00,,,0.13,,2013-04-11 13:42:00,
2013-04-11 06:52:00,43.0,42.0,30.36,East,88,4.0,9.0,96,0.00,,,0.13,,2013-04-11 13:52:00,
2013-04-11 07:02:00,43.0,42.0,30.36,East,79,3.0,8.0,96,0.00,,,0.13,,2013-04-11 14:02:00,
2013-04-11 07:12:00,43.0,42.0,30.36,East,79,3.0,8.0,96,0.00,,,0.13,,2013-04-11 14:12:00,
2013-04-11 07:22:00,43.0,42.0,30.37,East,81,4.0,7.0,96,0.00,,,0.13,,2013-04-11 14:22:00,
2013-04-11 07:32:00,43.0,42.0,30.37,East,83,3.0,8.0,96,0.00,,,0.13,,2013-04-11 14:32:00,
2013-04-11 07:42:00,43.0,42.0,30.37,East,83,3.0,8.0,96,0.00,,,0.13,,2013-04-11 14:42:00,
2013-04-11 07:52:00,43.0,42.0,30.37,ENE,68,5.0,8.0,96,0.00,,,0.13,,2013-04-11 14:52:00,
2013-04-11 08:02:00,43.0,42.0,30.37,ESE,102,4.0,8.0,96,0.00,,,0.13,,2013-04-11 15:02:00,
2013-04-11 08:12:00,43.0,42.0,30.37,ESE,102,4.0,8.0,96,0.00,,,0.13,,2013-04-11 15:12:00,
2013-04-11 08:21:00,43.0,42.0,30.38,East,98,4.0,9.0,96,0.00,,,0.13,,2013-04-11 15:21:00,
2013-04-11 08:32:00,43.0,42.0,30.38,ENE,65,5.0,8.0,96,0.00,,,0.13,,2013-04-11 15:32:00,
2013-04-11 08:42:00,43.0,42.0,30.38,ENE,65,5.0,8.0,96,0.00,,,0.13,,2013-04-11 15:42:00,
2013-04-11 08:52:00,44.0,43.0,30.38,ENE,57,4.0,9.0,96,0.00,,,0.13,,2013-04-11 15:52:00,
2013-04-11 09:02:00,45.0,44.0,30.38,ESE,103,2.0,6.0,96,0.00,,,0.13,,2013-04-11 16:02:00,
2013-04-11 09:12:00,45.0,44.0,30.38,ESE,103,2.0,6.0,96,0.00,,,0.13,,2013-04-11 16:12:00,
2013-04-11 09:22:00,46.0,45.0,30.37,ENE,76,3.0,7.0,95,0.00,,,0.13,,2013-04-11 16:22:00,
2013-04-11 09:32:00,46.0,45.0,30.38,East,94,1.0,6.0,95,0.00,,,0.10,,2013-04-11 16:32:00,
2013-04-11 09:41:00,46.0,45.0,30.38,East,94,1.0,6.0,95,0.00,,,0.10,,2013-04-11 16:41:00,
2013-04-11 09:52:00,48.0,47.0,30.37,SE,146,1.0,3.0,95,0.00,,,0.10,,2013-04-11 16:52:00,
2013-04-11 10:02:00,49.0,47.0,30.38,SSW,210,0.0,0.0,94,0.00,,,0.10,,2013-04-11 17:02:00,
2013-04-11 10:12:00,49.0,47.0,30.38,SSW,210,0.0,0.0,94,0.00,,,0.10,,2013-04-11 17:12:00,
2013-04-11 10:22:00,48.0,45.0,30.37,WSW,257,2.0,7.0,91,0.00,,,0.10,,2013-04-11 17:22:00,
2013-04-11 10:32:00,49.0,46.0,30.37,WSW,237,1.0,5.0,91,0.00,,,0.07,,2013-04-11 17:32:00,
2013-04-11 10:42:00,49.0,46.0,30.37,WSW,237,1.0,5.0,91,0.00,,,0.07,,2013-04-11 17:42:00,
2013-04-11 10:52:00,49.0,46.0,30.37,SW,232,1.0,4.0,90,0.00,,,0.07,,2013-04-11 17:52:00,
2013-04-11 11:02:00,49.0,46.0,30.37,West,276,4.0,6.0,88,0.00,,,0.07,,2013-04-11 18:02:00,
2013-04-11 11:12:00,49.0,46.0,30.37,West,276,4.0,6.0,88,0.00,,,0.07,,2013-04-11 18:12:00,
2013-04-11 11:22:00,48.0,45.0,30.37,SSW,205,0.0,6.0,88,0.00,,,0.07,,2013-04-11 18:22:00,
2013-04-11 11:32:00,49.0,46.0,30.37,West,277,1.0,4.0,89,0.00,,,0.03,,2013-04-11 18:32:00,
2013-04-11 11:42:00,49.0,46.0,30.37,West,277,1.0,4.0,89,0.00,,,0.03,,2013-04-11 18:42:00,
2013-04-11 11:52:00,49.0,46.0,30.37,West,261,4.0,7.0,88,0.00,,,0.03,,2013-04-11 18:52:00,
2013-04-11 12:03:00,49.0,46.0,30.38,South,188,2.0,6.0,88,0.00,,,0.03,,2013-04-11 19:03:00,
2013-04-11 12:13:00,49.0,46.0,30.38,South,188,2.0,6.0,88,0.00,,,0.03,,2013-04-11 19:13:00,
2013-04-11 12:22:00,49.0,46.0,30.38,WSW,242,3.0,7.0,88,0.00,,,0.03,,2013-04-11 19:22:00,
2013-04-11 12:32:00,50.0,46.0,30.38,WSW,250,3.0,8.0,87,0.00,,,0.02,,2013-04-11 19:32:00,
2013-04-11 12:42:00,50.0,46.0,30.38,WSW,250,3.0,8.0,87,0.00,,,0.02,,2013-04-11 19:42:00,
2013-04-11 12:52:00,50.0,46.0,30.38,WSW,245,4.0,7.0,86,0.00,,,0.02,,2013-04-11 19:52:00,
2013-04-11 13:02:00,50.0,46.0,30.37,West,272,4.0,9.0,87,0.00,,,0.02,,2013-04-11 20:02:00,
2013-04-11 13:12:00,50.0,46.0,30.37,West,272,4.0,9.0,87,0.00,,,0.02,,2013-04-11 20:12:00,
2013-04-11 13:21:00,50.0,46.0,30.37,WSW,239,3.0,8.0,85,0.00,,,0.02,,2013-04-11 20:21:00,
2013-04-11 13:33:00,51.0,46.0,30.37,West,263,3.0,7.0,83,0.00,,,0.02,,2013-04-11 20:33:00,
2013-04-11 13:42:00,51.0,46.0,30.37,West,263,3.0,7.0,83,0.00,,,0.02,,2013-04-11 20:42:00,
2013-04-11 13:52:00,51.0,46.0,30.37,West,271,5.0,10.0,82,0.00,,,0.02,,2013-04-11 20:52:00,
2013-04-11 14:02:00,51.0,46.0,30.36,West,268,5.0,9.0,82,0.00,,,0.02,,2013-04-11 21:02:00,
2013-04-11 14:11:00,51.0,46.0,30.36,West,268,5.0,9.0,82,0.00,,,0.02,,2013-04-11 21:11:00,
2013-04-11 14:22:00,51.0,45.0,30.36,SW,225,5.0,9.0,79,0.00,,,0.02,,2013-04-11 21:22:00,
2013-04-11 14:32:00,51.0,45.0,30.36,WSW,251,5.0,10.0,81,0.00,,,0.02,,2013-04-11 21:32:00,
2013-04-11 14:42:00,51.0,45.0,30.36,WSW,251,5.0,10.0,81,0.00,,,0.02,,2013-04-11 21:42:00,
2013-04-11 14:53:00,51.0,46.0,30.36,West,266,4.0,10.0,83,0.00,,,0.02,,2013-04-11 21:53:00,
2013-04-11 15:02:00,51.0,46.0,30.35,West,271,5.0,9.0,83,0.00,,,0.02,,2013-04-11 22:02:00,
2013-04-11 15:13:00,51.0,46.0,30.35,West,271,5.0,9.0,83,0.00,,,0.02,,2013-04-11 22:13:00,
2013-04-11 15:22:00,52.0,46.0,30.35,WSW,246,3.0,7.0,81,0.00,,,0.02,,2013-04-11 22:22:00,
2013-04-11 15:32:00,51.0,45.0,30.34,West,275,5.0,9.0,81,0.00,,,0.02,,2013-04-11 22:32:00,
2013-04-11 15:43:00,51.0,45.0,30.34,West,275,5.0,9.0,81,0.00,,,0.02,,2013-04-11 22:43:00,
2013-04-11 15:52:00,52.0,46.0,30.35,SW,218,3.0,9.0,81,0.00,,,0.02,,2013-04-11 22:52:00,
2013-04-11 16:03:00,52.0,46.0,30.33,WNW,287,5.0,8.0,81,0.00,,,0.02,,2013-04-11 23:03:00,
2013-04-11 16:12:00,52.0,46.0,30.33,WNW,287,5.0,8.0,81,0.00,,,0.02,,2013-04-11 23:12:00,
2013-04-11 16:22:00,52.0,46.0,30.32,West,270,4.0,8.0,80,0.00,,,0.02,,2013-04-11 23:22:00,
2013-04-11 16:32:00,52.0,46.0,30.31,West,268,4.0,12.0,81,0.00,,,0.02,,2013-04-11 23:32:00,
2013-04-11 16:42:00,52.0,46.0,30.31,West,268,4.0,12.0,81,0.00,,,0.02,,2013-04-11 23:42:00,
2013-04-11 16:52:00,52.0,46.0,30.30,WSW,247,6.0,10.0,79,0.00,,,0.02,,2013-04-11 23:52:00,
2013-04-11 17:02:00,52.0,46.0,30.29,SW,227,3.0,9.0,81,0.00,,,0.02,,2013-04-12 00:02:00,
2013-04-11 17:11:00,52.0,46.0,30.29,SW,227,3.0,9.0,81,0.00,,,0.02,,2013-04-12 00:11:00,
2013-04-11 17:21:00,52.0,46.0,30.29,West,273,4.0,10.0,80,0.00,,,0.02,,2013-04-12 00:21:00,
2013-04-11 17:32:00,51.0,45.0,30.29,SW,221,5.0,10.0,80,0.00,,,0.02,,2013-04-12 00:32:00,
2013-04-11 17:42:00,51.0,45.0,30.29,SW,221,5.0,10.0,80,0.00,,,0.02,,2013-04-12 00:42:00,
2013-04-11 17:52:00,51.0,46.0,30.29,WSW,258,5.0,9.0,82,0.00,,,0.02,,2013-04-12 00:52:00,
2013-04-11 18:02:00,51.0,46.0,30.28,WNW,302,6.0,10.0,82,0.00,,,0.02,,2013-04-12 01:02:00,
2013-04-11 18:12:00,51.0,46.0,30.28,WNW,302,6.0,10.0,82,0.00,,,0.02,,2013-04-12 01:12:00,
2013-04-11 18:22:00,51.0,46.0,30.27,ESE,103,2.0,7.0,82,0.00,,,0.02,,2013-04-12 01:22:00,
2013-04-11 18:32:00,51.0,46.0,30.26,West,281,2.0,6.0,82,0.00,,,0.02,,2013-04-12 01:32:00,
2013-04-11 18:42:00,51.0,46.0,30.26,West,281,2.0,6.0,82,0.00,,,0.02,,2013-04-12 01:42:00,
2013-04-11 18:52:00,51.0,45.0,30.26,West,263,2.0,8.0,81,0.00,,,0.02,,2013-04-12 01:52:00,
2013-04-11 19:02:00,50.0,45.0,30.26,SE,144,2.0,5.0,82,0.00,,,0.02,,2013-04-12 02:02:00,
2013-04-11 19:12:00,50.0,45.0,30.26,SE,144,2.0,5.0,82,0.00,,,0.02,,2013-04-12 02:12:00,
2013-04-11 19:22:00,50.0,45.0,30.26,SSE,157,2.0,6.0,82,0.00,,,0.02,,2013-04-12 02:22:00,
2013-04-11 19:32:00,50.0,45.0,30.26,SE,126,3.0,5.0,83,0.00,,,0.02,,2013-04-12 02:32:00,
2013-04-11 19:42:00,50.0,45.0,30.26,SE,126,3.0,5.0,83,0.00,,,0.02,,2013-04-12 02:42:00,
2013-04-11 19:52:00,49.0,44.0,30.25,SW,215,2.0,6.0,84,0.00,,,0.02,,2013-04-12 02:52:00,
2013-04-11 20:02:00,49.0,45.0,30.25,SSW,195,2.0,5.0,85,0.00,,,0.02,,2013-04-12 03:02:00,
2013-04-11 20:11:00,49.0,45.0,30.25,SSW,195,2.0,5.0,85,0.00,,,0.02,,2013-04-12 03:11:00,
2013-04-11 20:22:00,48.0,44.0,30.24,South,170,1.0,6.0,86,0.00,,,0.02,,2013-04-12 03:22:00,
2013-04-11 20:33:00,48.0,44.0,30.25,SSW,207,1.0,3.0,86,0.00,,,0.01,,2013-04-12 03:33:00,
2013-04-11 20:43:00,48.0,44.0,30.25,SSW,207,1.0,3.0,86,0.00,,,0.01,,2013-04-12 03:43:00,
2013-04-11 20:52:00,48.0,44.0,30.25,South,172,0.0,4.0,87,0.00,,,0.01,,2013-04-12 03:52:00,
2013-04-11 21:02:00,48.0,44.0,30.25,SSW,211,0.0,3.0,87,0.00,,,0.01,,2013-04-12 04:02:00,
2013-04-11 21:12:00,48.0,44.0,30.25,SSW,211,0.0,3.0,87,0.00,,,0.01,,2013-04-12 04:12:00,
2013-04-11 21:22:00,48.0,45.0,30.25,South,179,0.0,2.0,88,0.00,,,0.01,,2013-04-12 04:22:00,
2013-04-11 21:33:00,48.0,45.0,30.26,SSW,196,1.0,4.0,88,0.00,,,0.01,,2013-04-12 04:33:00,
2013-04-11 21:42:00,48.0,45.0,30.26,SSW,196,1.0,4.0,88,0.00,,,0.01,,2013-04-12 04:42:00,
2013-04-11 21:52:00,47.0,44.0,30.26,WSW,244,0.0,4.0,88,0.00,,,0.01,,2013-04-12 04:52:00,
2013-04-11 22:11:00,47.0,44.0,30.26,ENE,77,0.0,0.0,88,0.00,,,0.01,,2013-04-12 05:11:00,
2013-04-11 22:22:00,47.0,44.0,30.25,ESE,112,0.0,4.0,89,0.00,,,0.01,,2013-04-12 05:22:00,
2013-04-11 22:32:00,47.0,44.0,30.24,ESE,114,0.0,3.0,89,0.00,,,0.01,,2013-04-12 05:32:00,
2013-04-11 22:42:00,47.0,44.0,30.24,ESE,114,0.0,3.0,89,0.00,,,0.01,,2013-04-12 05:42:00,
2013-04-11 22:52:00,46.0,43.0,30.24,East,101,1.0,3.0,90,0.00,,,0.01,,2013-04-12 05:52:00,
2013-04-11 23:02:00,45.0,42.0,30.24,ESE,103,1.0,3.0,90,0.00,,,0.01,,2013-04-12 06:02:00,
2013-04-11 23:12:00,45.0,42.0,30.24,ESE,103,1.0,3.0,90,0.00,,,0.01,,2013-04-12 06:12:00,
2013-04-11 23:22:00,45.0,43.0,30.23,ESE,107,0.0,3.0,91,0.00,,,0.01,,2013-04-12 06:22:00,
2013-04-11 23:32:00,45.0,43.0,30.22,East,79,0.0,3.0,91,0.00,,,0.01,,2013-04-12 06:32:00,
2013-04-11 23:42:00,45.0,43.0,30.22,East,79,0.0,3.0,91,0.00,,,0.01,,2013-04-12 06:42:00,
2013-04-11 23:52:00,44.0,42.0,30.22,East,87,2.0,5.0,91,0.00,,,0.01,,2013-04-12 06:52:00,